Regional Weather Roundup
Issued by NWS

Home | Current Version | Previous Version | Graphics & Text | Print | Product List | Glossary On
Versions: 1 2 3 4 5 6 7 8 9 10 11 12 13 14 15 16 17 18 19 20 21 22 23 24 25 26 27 28 29 30 31 32 33 34 35 36 37 38 39 40 41 42 43 44 45 46 47 48 49 50
000
ASUS43 KFSD 222210
RWRSD

WEATHER ROUNDUP FOR SOUTH DAKOTA
NATIONAL WEATHER SERVICE SIOUX FALLS SD
500 PM CDT SAT APR 22 2017

NOTE: "FAIR" INDICATES FEW OR NO CLOUDS BELOW 12,000 FEET WITH NO
SIGNIFICANT WEATHER AND/OR OBSTRUCTIONS TO VISIBILITY.


SDZ001>005-009-010-012>017-222300-
NORTHWEST AND NORTH CENTRAL SOUTH DAKOTA

CITY           SKY/WX    TMP DP  RH WIND       PRES   REMARKS
BUFFALO          N/A     64  37  36 SW16G23   30.03F
FAITH            N/A     66  37  34 SW10G18   30.12F
MOBRIDGE       MOSUNNY   71  35  26 W14G20    30.08F
$$

SDZ012>016-024>037-041>051-057-063-072>074-222300-
SOUTHWEST AND SOUTH CENTRAL SOUTH DAKOTA

CITY           SKY/WX    TMP DP  RH WIND       PRES   REMARKS
RAPID CTY ARPT SUNNY     66  35  31 S20       30.11F
PIERRE         SUNNY     68  34  28 SW15G21   30.13F
CUSTER         MOSUNNY   52  29  41 SW8G20    30.18F
PHILIP         SUNNY     67  34  29 SW12      30.14F
PINE RIDGE     SUNNY     65  33  30 S13       30.17F
SPEARFISH      FAIR      57  39  51 SE10      30.14F
WINNER         FAIR      67  32  27 W9        30.18F
$$

SDZ004>011-016>023-039-040-222300-
NORTHEAST SOUTH DAKOTA

CITY           SKY/WX    TMP DP  RH WIND       PRES   REMARKS
ABERDEEN       SUNNY     70  29  21 SW16      30.12F
WATERTOWN      SUNNY     65  37  35 SW15      30.15F
BROOKINGS      SUNNY     64  36  35 W8        30.17F
SISSETON         N/A     70  38  31 W12G24    30.11F
$$

SDZ017-020-022-023-036>040-048>070-222300-
SOUTHEAST SOUTH DAKOTA

CITY           SKY/WX    TMP DP  RH WIND       PRES   REMARKS
SIOUX FALLS    MOSUNNY   68  38  33 VRB6      30.18F
HURON          SUNNY     68  35  29 W13       30.16F
MITCHELL       SUNNY     67  37  33 W10       30.18F
YANKTON        SUNNY     64  34  32 SW5       30.19F
$$

ABBREVIATIONS USED IN REMARKS
   TC - TEMPERATURE IN CELSIUS
  WCI - WIND CHILL INDEX
   HX - HEAT INDEX
  VSB - VISIBILITY





USA.gov is the U.S. government's official web portal to all federal, state and local government web resources and services.